Lewistown, MT

4:28 AM MST on November 22, 2017 (GMT -0700)
Lewistown Municipal

Weather History for KLWT - March, 2014

Change the Weather History Date:

Monday, March 10, 2014

  Actual Average Record
Temperature  
Mean Temperature 38 °F 31 °F  
Max Temperature 44 °F 42 °F 78 °F (1902)
Min Temperature 31 °F 20 °F -22 °F (1951)
Degree Days  
Heating Degree Days 27 34  
Month to date heating degree days 386 353  
Since 1 July heating degree days 6442 6157  
Cooling Degree Days 0 0  
Month to date cooling degree days 0 0  
Year to date cooling degree days 0 0  
Moisture  
Dew Point 33 °F    
Average Humidity 85    
Maximum Humidity 100    
Minimum Humidity 70    
Precipitation  
Precipitation 0.77 in 0.02 in 0.77 in (2014)
Month to date precipitation 0.81 0.22  
Year to date precipitation 2.09 1.23  
Snow  
Snow 0.00 in - - ()
Snow Depth 0.00 in    
Sea Level Pressure  
Sea Level Pressure 29.81 in    
Wind  
Wind Speed 3 mph (NNW)    
Max Wind Speed 14 mph    
Max Gust Speed 16 mph    
Visibility 4 miles    
Events Fog , Rain , Snow    
T = Trace of Precipitation, MM = Missing Value Source: NWS Daily Summary

Daily Weather History Graph

Daily Weather History Graph

Search for Another Location

Airport or City:

Trip Planner

Search our weather history database for the weather conditions in past years. The results will help you decide how hot, cold, wet, or windy it might be!

Date:

Astronomy

Mar. 10, 2014 Rise Set
Actual Time 7:40 AM MDT 7:16 PM MDT
Civil Twilight 7:10 AM MDT 7:46 PM MDT
Nautical Twilight 6:34 AM MDT 8:22 PM MDT
Astronomical Twilight 5:59 AM MDT 8:58 PM MDT
Moon 1:47 PM MDT (3/10) 4:10 AM MDT (3/10)
Length of Visible Light 12h 36m
Length of Day
11h 36m
Waxing Gibbous, 70% of the Moon is Illuminated
Mar 10
Waxing Gibbous
Mar 16
Full
Mar 23
Last Quarter
Mar 30
New
Apr 7
First Quarter

Hourly Weather History & Observations

Time (MDT) Temp. Windchill Dew Point Humidity Pressure Visibility Wind Dir Wind Speed Gust Speed Precip Events Conditions
12:54 AM 43.0 °F 37.2 °F 34.0 °F 71% 29.82 in 10.0 mi West 10.4 mph - N/A   Overcast
1:54 AM 41.0 °F 35.8 °F 33.1 °F 73% 29.83 in 10.0 mi NW 8.1 mph - N/A   Scattered Clouds
2:54 AM 39.0 °F 32.8 °F 33.1 °F 79% 29.82 in 10.0 mi West 9.2 mph - N/A   Overcast
3:54 AM 39.0 °F 36.8 °F 33.1 °F 79% 29.80 in 10.0 mi SE 3.5 mph - N/A   Overcast
4:54 AM 42.1 °F - 34.0 °F 73% 29.79 in 10.0 mi Calm Calm - N/A   Overcast
5:54 AM 39.0 °F 34.0 °F 36.0 °F 89% 29.81 in 9.0 mi North 6.9 mph - 0.01 in Rain Light Rain
6:45 AM 39.0 °F 34.0 °F 36.0 °F 89% 29.80 in 10.0 mi ENE 6.9 mph - 0.03 in Rain Light Rain
6:54 AM 39.0 °F 36.8 °F 36.0 °F 89% 29.81 in 10.0 mi Variable 3.5 mph - 0.04 in Rain Light Rain
7:54 AM 37.9 °F 35.5 °F 36.0 °F 93% 29.81 in 10.0 mi NNW 3.5 mph - 0.02 in Rain Light Rain
8:09 AM 37.0 °F 34.5 °F 36.0 °F 96% 29.79 in 10.0 mi NW 3.5 mph - 0.00 in Rain Light Rain
8:40 AM 37.9 °F - 35.1 °F 89% 29.79 in 10.0 mi Calm Calm - 0.01 in Rain Light Rain
8:54 AM 37.9 °F 35.5 °F 34.0 °F 86% 29.81 in 10.0 mi North 3.5 mph - 0.01 in Rain Light Rain
9:54 AM 37.0 °F 34.5 °F 34.0 °F 89% 29.81 in 5.0 mi NNE 3.5 mph - 0.05 in Rain Light Rain
10:30 AM 36.0 °F - 34.0 °F 93% 29.79 in 6.0 mi Calm Calm - 0.03 in Rain Light Rain
10:54 AM 35.1 °F - 33.1 °F 92% 29.83 in 5.0 mi Calm Calm - 0.07 in Rain Rain
11:04 AM 35.1 °F - 33.1 °F 92% 29.80 in 4.0 mi Calm Calm - 0.01 in Snow Light Snow
11:18 AM 34.0 °F - 33.1 °F 96% 29.79 in 2.5 mi Calm Calm - 0.03 in Snow Light Snow
11:33 AM 33.1 °F - 33.1 °F 100% 29.79 in 4.0 mi Calm Calm - 0.04 in Snow Light Snow
11:46 AM 33.1 °F - 32.0 °F 96% 29.80 in 2.5 mi Calm Calm - 0.06 in Snow Light Snow
11:54 AM 33.1 °F - 32.0 °F 96% 29.83 in 1.8 mi Calm Calm - 0.07 in Snow Light Snow
12:09 PM 32.0 °F - 32.0 °F 100% 29.79 in 1.5 mi Calm Calm - 0.02 in Snow Light Snow
12:23 PM 32.0 °F - 32.0 °F 100% 29.79 in 2.0 mi Calm Calm - 0.03 in Snow Light Snow
12:30 PM 32.0 °F - 32.0 °F 100% 29.79 in 1.2 mi Calm Calm - 0.04 in Snow Light Snow
12:49 PM 32.0 °F 28.7 °F 32.0 °F 100% 29.79 in 0.8 mi North 3.5 mph - 0.06 in Snow Light Snow
12:54 PM 32.0 °F 27.5 °F 32.0 °F 100% 29.83 in 0.5 mi North 4.6 mph - 0.06 in Fog , Snow Snow
1:05 PM 32.0 °F - 32.0 °F 100% 29.78 in 0.2 mi Calm Calm - 0.01 in Fog , Snow Snow
1:21 PM 32.0 °F - 32.0 °F 100% 29.78 in 0.5 mi Calm Calm - 0.03 in Fog , Snow Snow
1:29 PM 32.0 °F - 32.0 °F 100% 29.78 in 1.0 mi Calm Calm - 0.03 in Snow Light Snow
1:43 PM 33.1 °F - 32.0 °F 96% 29.76 in 3.0 mi Calm Calm - 0.04 in Snow Light Snow
1:54 PM 33.1 °F - 32.0 °F 96% 29.80 in 6.0 mi Calm Calm - 0.04 in Snow Light Snow
2:34 PM 33.1 °F 30.0 °F 33.1 °F 100% 29.74 in 10.0 mi SE 3.5 mph - 0.00 in   Overcast
2:42 PM 34.0 °F - 33.1 °F 96% 29.74 in 10.0 mi Calm Calm - 0.00 in   Overcast
2:54 PM 34.0 °F - 33.1 °F 96% 29.78 in 7.0 mi Calm Calm - 0.01 in Snow Light Snow
3:37 PM 34.0 °F - 33.1 °F 96% 29.74 in 3.0 mi Calm Calm - 0.01 in Snow Light Snow
3:51 PM 33.8 °F - 33.8 °F 100% 29.74 in 2.0 mi Calm Calm - 0.02 in Snow Light Snow
4:02 PM 33.1 °F 30.0 °F 33.1 °F 100% 29.74 in 1.5 mi North 3.5 mph - 0.00 in Snow Light Snow
4:32 PM 33.1 °F - 32.0 °F 96% 29.74 in 0.8 mi Calm Calm - 0.02 in Snow Light Snow
4:43 PM 32.0 °F - 32.0 °F 100% 29.75 in 0.8 mi Calm Calm - 0.03 in Snow Light Snow
4:51 PM 32.0 °F - 32.0 °F 100% 29.75 in 1.2 mi Calm Calm - 0.04 in Snow Light Snow
4:54 PM 32.0 °F - 32.0 °F 100% 29.80 in 1.2 mi Calm Calm - 0.04 in Snow Light Snow
5:07 PM 32.0 °F - 32.0 °F 100% 29.76 in 1.2 mi Calm Calm - 0.01 in Snow Light Snow
5:16 PM 32.0 °F - 32.0 °F 100% 29.76 in 1.2 mi Calm Calm - 0.01 in Snow Light Snow
5:46 PM 32.0 °F - 32.0 °F 100% 29.77 in 0.8 mi Calm Calm - 0.03 in Snow Light Snow
5:54 PM 32.0 °F - 32.0 °F 100% 29.81 in 0.8 mi Calm Calm - 0.04 in Snow Light Snow
6:36 PM 32.0 °F 27.5 °F 32.0 °F 100% 29.78 in 0.8 mi North 4.6 mph - 0.03 in Snow Light Snow
6:46 PM 32.0 °F 28.7 °F 32.0 °F 100% 29.79 in 1.0 mi North 3.5 mph - 0.04 in Snow Light Snow
6:54 PM 32.0 °F 28.7 °F 32.0 °F 100% 29.84 in 1.0 mi North 3.5 mph - 0.04 in Snow Light Snow
7:05 PM 32.0 °F 28.7 °F 32.0 °F 100% 29.79 in 0.8 mi North 3.5 mph - 0.01 in Snow Light Snow
7:21 PM 32.0 °F - 32.0 °F 100% 29.80 in 1.5 mi Calm Calm - 0.02 in Snow Light Snow
7:39 PM 32.0 °F 28.7 °F 32.0 °F 100% 29.81 in 1.5 mi North 3.5 mph - 0.03 in Snow Light Snow
7:54 PM 32.0 °F - 32.0 °F 100% 29.88 in 1.5 mi Calm Calm - 0.04 in Snow Light Snow
8:06 PM 32.0 °F - 32.0 °F 100% 29.83 in 1.8 mi Calm Calm - 0.00 in Snow Light Snow
8:54 PM 32.0 °F 28.7 °F 32.0 °F 100% 29.91 in 1.2 mi NW 3.5 mph - 0.02 in Snow Light Snow
9:02 PM 32.0 °F - 32.0 °F 100% 29.85 in 1.2 mi Calm Calm - 0.00 in Snow Light Snow
9:34 PM 30.9 °F 26.2 °F 30.9 °F 100% 29.87 in 2.0 mi WNW 4.6 mph - 0.02 in Snow Light Snow
9:54 PM 30.9 °F 26.2 °F 30.9 °F 100% 29.94 in 2.0 mi WNW 4.6 mph - 0.03 in Snow Light Snow
10:06 PM 30.9 °F 26.2 °F 30.9 °F 100% 29.88 in 2.0 mi WNW 4.6 mph - 0.01 in Snow Light Snow
10:19 PM 30.9 °F 26.2 °F 30.9 °F 100% 29.88 in 1.5 mi NW 4.6 mph - 0.01 in Snow Light Snow
10:54 PM 30.9 °F 26.2 °F 30.9 °F 100% 29.97 in 2.0 mi WNW 4.6 mph - 0.03 in Snow Light Snow
11:09 PM 30.9 °F 27.5 °F 30.9 °F 100% 29.91 in 1.5 mi NW 3.5 mph - 0.01 in Snow Light Snow
11:42 PM 30.9 °F 26.2 °F 30.9 °F 100% 29.93 in 0.8 mi North 4.6 mph - 0.04 in Snow Light Snow
11:54 PM 30.9 °F 23.5 °F 30.9 °F 100% 30.01 in 0.8 mi North 8.1 mph - 0.07 in Snow Light Snow